Tracking 19792 objects as of 16-Jul-2019
HD Live streaming from Space Station
objects crossing your sky now

THORAD DELTA 1 DEB

Track THORAD DELTA 1 DEB now!
10-day predictions


NORAD ID: 8151
Int'l Code: 1974-089R
Perigee: 1,085.4 km
Apogee: 1,605.5 km
Inclination: 101.8 °
Period: 112.4 minutes
Semi major axis: 7716 km
RCS: 0.0604 m2 (small)
Launch date: November 15, 1974
Source: United States (US)
Launch site: AIR FORCE WESTERN TEST RANGE (AFWTR)

Note: This is SATELLITE DEBRIS
aabbcc
Your satellite tracking list
Your tracking list is empty




NASA's NSSDC Master Catalog

Two Line Element Set (TLE):
1  8151U 74089R   19196.86827381 +.00000165 +00000-0 +72775-3 0  9995
2  8151 101.8088 147.6065 0336987 128.1538 258.3219 12.80781980085058
Source of the keplerian elements: AFSPC